Voltar ao catálogo

STARLINK-31228

AtivoComunicaçõesVLEO
NORAD 58842·PAYLOAD·🇺🇸 United States

Lançado Jan 24, 2024 de Vandenberg Space Force Base

Loading…

Próximas Passagens (próximas 24 horas)

TLE

AtualizadoSource: CelesTrak SupGP

Época: Sep 14, 2026, 14:19 UTC

1 58842C 24017S   26257.59701389 -.00032535  00000+0 -96142-3 0  2576
2 58842  53.1600  45.3766 0001221  82.4154 139.7641 15.34401277    11

Acompanhe STARLINK-31228 em tempo real com AllMySat

Download on the App Store